Roswell, NM

3:51 PM MST on February 13, 2016 (GMT -0700)
Roswell Industrial

Weather History for KROW - February, 2012

Change the Weather History Date:

Sunday, February 12, 2012

  Actual Average Record
Temperature  
Mean Temperature 30 °F 45 °F  
Max Temperature 34 °F 60 °F 87 °F (1962)
Min Temperature 26 °F 30 °F -20 °F (1905)
Degree Days  
Heating Degree Days 35 20  
Month to date heating degree days 297 253  
Since 1 July heating degree days 2392 2419  
Cooling Degree Days 0 0  
Month to date cooling degree days 0 0  
Year to date cooling degree days 0 0  
Moisture  
Dew Point 19 °F    
Average Humidity 68    
Maximum Humidity 92    
Minimum Humidity 43    
Precipitation  
Precipitation 0.01 in 0.02 in 0.68 in (1968)
Month to date precipitation 0.02 0.18  
Year to date precipitation 0.02 0.56  
Sea Level Pressure  
Sea Level Pressure 30.11 in    
Wind  
Wind Speed 13 mph (SSE)    
Max Wind Speed 21 mph    
Max Gust Speed 25 mph    
Visibility 10 miles    
Events      
T = Trace of Precipitation, MM = Missing Value Source: NWS Daily Summary

Daily Weather History Graph

Daily Weather History Graph

Search for Another Location

Airport or City:

Trip Planner

Search our weather history database for the weather conditions in past years. The results will help you decide how hot, cold, wet, or windy it might be!

Date:

Astronomy

Feb. 12, 2012 Rise Set
Actual Time 6:45 AM MST 5:39 PM MST
Civil Twilight 6:19 AM MST 6:05 PM MST
Nautical Twilight 5:50 AM MST 6:34 PM MST
Astronomical Twilight 5:21 AM MST 7:03 PM MST
Moon 11:17 PM MST (2/12) 9:25 AM MST (2/12)
Length of Visible Light 11h 45m
Length of Day
10h 54m
Waning Gibbous, 71% of the Moon is Illuminated
Feb 12
Waning Gibbous
Feb 14
Last Quarter
Feb 21
New
Feb 29
First Quarter
Mar 8
Full

Hourly Weather History & Observations

Time (MST) Temp. Windchill Dew Point Humidity Pressure Visibility Wind Dir Wind Speed Gust Speed Precip Events Conditions
12:51 AM 30.9 °F 23.5 °F 10.0 °F 42% 30.35 in 10.0 mi SE 8.1 mph - N/A   Overcast
1:51 AM 30.0 °F 22.4 °F 10.0 °F 43% 30.34 in 10.0 mi SE 8.1 mph - N/A   Overcast
2:51 AM 30.0 °F 22.4 °F 10.9 °F 45% 30.30 in 10.0 mi SSE 8.1 mph - N/A   Overcast
3:51 AM 28.9 °F 19.8 °F 12.0 °F 49% 30.28 in 10.0 mi SSE 10.4 mph - N/A   Overcast
4:40 AM 28.4 °F 18.0 °F 14.0 °F 55% 30.27 in 10.0 mi SSE 12.7 mph - N/A   Overcast
4:51 AM 28.0 °F 18.1 °F 15.1 °F 58% 30.27 in 10.0 mi SSE 11.5 mph - N/A   Overcast
5:07 AM 28.4 °F 18.0 °F 15.8 °F 59% 30.27 in 10.0 mi SSE 12.7 mph - N/A   Overcast
5:51 AM 28.0 °F 18.1 °F 16.0 °F 61% 30.28 in 10.0 mi SSE 11.5 mph - N/A   Overcast
6:51 AM 27.0 °F 16.7 °F 17.1 °F 66% 30.28 in 10.0 mi SE 11.5 mph - N/A   Overcast
7:51 AM 26.1 °F 16.2 °F 17.1 °F 69% 30.29 in 10.0 mi SE 10.4 mph - N/A   Overcast
8:51 AM 26.1 °F 17.6 °F 17.1 °F 69% 30.28 in 10.0 mi SE 8.1 mph - N/A   Overcast
9:51 AM 28.0 °F 17.5 °F 17.1 °F 63% 30.26 in 10.0 mi SSE 12.7 mph - 0.01 in   Overcast
10:51 AM 28.0 °F 15.7 °F 18.0 °F 66% 30.23 in 10.0 mi SSE 17.3 mph - 0.00 in   Overcast
11:51 AM 30.0 °F 18.7 °F 18.0 °F 61% 30.18 in 10.0 mi SSE 16.1 mph - N/A   Overcast
12:51 PM 30.9 °F 20.2 °F 17.1 °F 57% 30.11 in 10.0 mi South 15.0 mph - N/A   Overcast
1:51 PM 33.1 °F 22.6 °F 19.0 °F 56% 30.06 in 10.0 mi SSE 16.1 mph 20.7 mph N/A   Overcast
2:35 PM 32.0 °F 21.6 °F 19.4 °F 60% 30.04 in 10.0 mi SSE 15.0 mph - N/A   Overcast
2:47 PM 32.0 °F 22.1 °F 19.4 °F 60% 30.03 in 10.0 mi SSE 13.8 mph - N/A   Overcast
2:51 PM 33.1 °F 23.0 °F 19.9 °F 59% 30.04 in 10.0 mi SSE 15.0 mph - N/A   Overcast
3:51 PM 32.0 °F 20.1 °F 19.9 °F 61% 29.96 in 10.0 mi SE 19.6 mph 24.2 mph N/A   Overcast
4:11 PM 32.0 °F 20.1 °F 21.2 °F 64% 29.97 in 10.0 mi SE 19.6 mph 25.3 mph N/A   Scattered Clouds
4:28 PM 33.8 °F 23.9 °F 21.2 °F 60% 29.97 in 10.0 mi SSE 15.0 mph - N/A   Mostly Cloudy
4:44 PM 32.0 °F 21.6 °F 21.2 °F 64% 29.97 in 10.0 mi SSE 15.0 mph - N/A   Scattered Clouds
4:51 PM 32.0 °F 21.2 °F 21.9 °F 66% 29.99 in 10.0 mi SSE 16.1 mph - N/A   Scattered Clouds
5:06 PM 30.2 °F 19.3 °F 21.2 °F 69% 29.97 in 10.0 mi SSE 15.0 mph - N/A   Mostly Cloudy
5:51 PM 30.0 °F 20.0 °F 21.9 °F 72% 30.01 in 10.0 mi South 12.7 mph - N/A   Overcast
6:51 PM 28.9 °F 19.8 °F 23.0 °F 78% 30.00 in 10.0 mi SSE 10.4 mph - N/A   Overcast
7:33 PM 28.4 °F 19.1 °F 23.0 °F 80% 29.97 in 10.0 mi South 10.4 mph - N/A   Overcast
7:51 PM 28.9 °F 18.6 °F 23.0 °F 78% 30.01 in 10.0 mi SSE 12.7 mph - N/A   Overcast
8:47 PM 28.4 °F 17.5 °F 24.8 °F 86% 29.96 in 10.0 mi South 13.8 mph - N/A   Overcast
8:51 PM 28.0 °F 17.0 °F 24.1 °F 85% 30.00 in 10.0 mi South 13.8 mph - N/A   Overcast
9:51 PM 28.0 °F 16.1 °F 26.1 °F 92% 29.97 in 8.0 mi South 16.1 mph - N/A   Overcast
10:51 PM 28.0 °F 17.0 °F 26.1 °F 92% 29.97 in 8.0 mi South 13.8 mph - N/A   Overcast
11:51 PM 28.9 °F 25.2 °F 27.0 °F 92% 29.97 in 7.0 mi South 3.5 mph - N/A   Overcast